FW0672 Weather Reports


time (UTC)temp
F
wind
direction
speed
knots
gust
knots
rain 1hr
in
rain 24hr
in
rain mn
in
humidity
%
barometer
mb
20260504081515 47 214 1.7 2.6 0.00 0.00 0.00 68 1018.9
20260504080516 48 179 0.9 1.7 0.00 0.00 0.00 69 1018.9
20260504050520 42 215 0.9 2.6 0.00 0.00 0.00 76 1019.6
20260504045523 41 0.0 0.0 0.00 0.00 0.00 77 1019.7
20260504044518 41 0.0 0.0 0.00 0.00 0.00 77 1019.8
20260504043525 42 0.0 0.0 0.00 0.00 0.00 76 1019.8
20260504042526 43 0.0 0.0 0.00 0.00 0.00 75 1019.7
20260504041528 43 0.0 0.0 0.00 0.00 0.00 74 1019.7
20260504040529 43 0.0 0.0 0.00 0.00 0.00 73 1019.7
20260504035530 43 0.0 0.0 0.00 0.00 0.00 73 1019.6
20260504034533 43 0.0 0.0 0.00 0.00 0.00 73 1019.5
20260504033516 43 0.0 0.0 0.00 0.00 0.00 72 1019.5
20260504032518 43 0.0 0.0 0.00 0.00 0.00 72 1019.5
20260504031519 43 0.0 0.0 0.00 0.00 0.00 72 1019.5
20260504030521 44 0.0 0.0 0.00 0.00 0.00 71 1019.5
20260504025523 44 0.0 0.0 0.00 0.00 0.00 73 1019.5
20260504024524 44 158 3.5 3.5 0.00 0.00 0.00 73 1019.4
20260504023620 45 0.0 0.0 0.00 0.00 0.00 70 1019.3
20260504022515 45 0.0 0.0 0.00 0.00 0.00 69 1019.2
20260504021529 45 0.0 0.0 0.00 0.00 0.00 68 1019.1
20260504020531 46 0.0 0.0 0.00 0.00 0.00 68 1018.9
20260504015514 47 0.0 0.0 0.00 0.00 0.00 66 1018.8
20260504014516 48 0.0 0.0 0.00 0.00 0.00 63 1018.8
20260504013517 49 0.0 0.0 0.00 0.00 0.00 62 1018.5
20260504012519 50 0.0 0.0 0.00 0.00 0.00 59 1018.5
20260504011521 49 0.0 0.0 0.00 0.00 0.00 56 1018.5
20260504005524 52 0.0 0.0 0.00 0.00 0.00 51 1018.5
20260504004525 53 0.0 0.0 0.00 0.00 0.00 49 1018.5
20260504003527 55 0.0 0.0 0.00 0.00 0.00 45 1018.5
20260504002523 56 270 0.9 1.7 0.00 0.00 0.00 43 1018.5
20260504000531 58 250 1.7 2.6 0.00 0.00 0.00 41 1018.3
20260503235515 59 238 2.6 3.5 0.00 0.00 0.00 40 1018.3
20260503234516 60 255 4.3 5.2 0.00 0.00 0.00 39 1018.2
20260503233518 61 244 5.2 7.0 0.00 0.00 0.00 38 1018.2
20260503232519 61 253 5.2 7.8 0.00 0.00 0.00 37 1018.0
20260503231521 63 253 4.3 6.1 0.00 0.00 0.00 36 1018.0
20260503230522 64 264 6.1 11.3 0.00 0.00 0.00 36 1018.0
20260503225524 64 256 6.1 8.7 0.00 0.00 0.00 36 1018.0
20260503224526 65 230 5.2 7.0 0.00 0.00 0.00 35 1018.0
20260503223527 65 253 6.1 8.7 0.00 0.00 0.00 35 1018.0
20260503222529 66 267 5.2 7.8 0.00 0.00 0.00 34 1018.1
20260503221625 65 281 5.2 8.7 0.00 0.00 0.00 35 1018.2
20260503220515 65 278 3.5 6.1 0.00 0.00 0.00 36 1018.2
20260503215516 66 265 6.1 9.6 0.00 0.00 0.00 35 1018.3
20260503213520 65 259 5.2 7.0 0.00 0.00 0.00 35 1018.2
20260503212522 65 265 6.1 7.0 0.00 0.00 0.00 35 1018.3
20260503211524 65 264 6.1 8.7 0.00 0.00 0.00 35 1018.3
20260503210525 66 261 6.1 10.4 0.00 0.00 0.00 34 1018.3
20260503205527 66 240 5.2 8.7 0.00 0.00 0.00 35 1018.2
20260503204528 66 285 5.2 7.8 0.00 0.00 0.00 34 1018.3
20260503203529 66 276 7.8 13.9 0.00 0.00 0.00 35 1018.3
20260503202531 66 278 5.2 8.7 0.00 0.00 0.00 35 1018.5
20260503201532 65 237 4.3 6.1 0.00 0.00 0.00 36 1018.5
20260503200517 65 259 6.1 7.8 0.00 0.00 0.00 35 1018.6
20260503195518 66 257 7.8 13.9 0.00 0.00 0.00 35 1018.8
20260503194520 65 292 5.2 7.8 0.00 0.00 0.00 36 1019.0
20260503193516 65 260 7.8 11.3 0.00 0.00 0.00 36 1019.0
20260503192524 64 357 4.3 6.1 0.00 0.00 0.00 35 1019.3
20260503190527 64 228 5.2 7.8 0.00 0.00 0.00 36 1019.5
20260503185529 63 281 6.1 10.4 0.00 0.00 0.00 37 1019.7
20260503184531 64 333 4.3 6.1 0.00 0.00 0.00 38 1019.8
20260503183532 63 235 5.2 7.8 0.00 0.00 0.00 38 1019.9
20260503182516 63 268 6.1 8.7 0.00 0.00 0.00 36 1020.0
20260503181518 63 232 7.0 10.4 0.00 0.00 0.00 37 1020.0
20260503180519 63 245 5.2 13.0 0.00 0.00 0.00 37 1020.1
20260503175521 62 236 4.3 8.7 0.00 0.00 0.00 38 1020.3
20260503174522 62 257 7.0 10.4 0.00 0.00 0.00 38 1020.3
20260503173524 61 245 6.1 10.4 0.00 0.00 0.00 40 1020.4
20260503172520 61 265 7.0 9.6 0.00 0.00 0.00 40 1020.5
20260503171615 61 266 6.1 12.2 0.00 0.00 0.00 40 1020.5
20260503170528 61 281 9.6 15.6 0.00 0.00 0.00 40 1020.6
20260503150517 54 276 6.1 9.6 0.00 0.00 0.00 50 1021.7
20260503130524 49 263 4.3 7.0 0.00 0.00 0.00 62 1021.9